Hourly Weather Rusko Selo

Today, 15 April, Thursday

Time Temperature Precipitation Wind Pressure Humidity
00:00 +4°C° 0.2 mm 2 mps 758 mmHg 93%
01:00 +3°C° 0 mm 2 mps 758 mmHg 94%
02:00 +3°C° 0.2 mm 2 mps 758 mmHg 94%
03:00 +2°C° 0.2 mm 2 mps 758 mmHg 94%
04:00 +2°C° 0.2 mm 2 mps 758 mmHg 95%
05:00 +2°C° 0.1 mm 2 mps 758 mmHg 93%
06:00 +3°C° 0.1 mm 2 mps 758 mmHg 91%
07:00 +3°C° 0.1 mm 2 mps 759 mmHg 89%
08:00 +3°C° 0 mm 3 mps 759 mmHg 82%
09:00 +4°C° 0 mm 3 mps 759 mmHg 74%
10:00 +6°C° 0 mm 4 mps 758 mmHg 66%
11:00 +6°C° 0.2 mm 4 mps 758 mmHg 63%
12:00 +7°C° 0.2 mm 5 mps 758 mmHg 60%
13:00 +8°C° 0.2 mm 6 mps 758 mmHg 56%
14:00 +7°C° 0.2 mm 6 mps 758 mmHg 58%
15:00 +7°C° 0.2 mm 6 mps 758 mmHg 59%
16:00 +7°C° 0.2 mm 6 mps 758 mmHg 60%
17:00 +6°C° 0 mm 5 mps 758 mmHg 66%
18:00 +4°C° 0 mm 4 mps 758 mmHg 73%
19:00 +3°C° 0 mm 3 mps 758 mmHg 79%
20:00 +2°C° 0 mm 3 mps 758 mmHg 80%
21:00 +2°C° 0 mm 3 mps 758 mmHg 82%
22:00 +1°C° 0 mm 3 mps 758 mmHg 83%
23:00 +1°C° 0 mm 3 mps 758 mmHg 84%

Tomorrow, 16 April, Friday

Time Temperature Precipitation Wind Pressure Humidity
00:00 +1°C° 0 mm 3 mps 758 mmHg 85%
01:00 +1°C° 0 mm 3 mps 758 mmHg 86%
02:00 0°C° 0 mm 3 mps 758 mmHg 87%
03:00 0°C° 0 mm 3 mps 758 mmHg 89%
04:00 -1°C° 0 mm 3 mps 758 mmHg 90%
05:00 +1°C° 0 mm 3 mps 758 mmHg 85%
06:00 +2°C° 0 mm 3 mps 759 mmHg 80%
07:00 +3°C° 0 mm 3 mps 759 mmHg 75%
08:00 +4°C° 0 mm 3 mps 759 mmHg 68%
09:00 +7°C° 0 mm 3 mps 759 mmHg 62%
10:00 +8°C° 0 mm 3 mps 759 mmHg 55%
11:00 +9°C° 0 mm 3 mps 759 mmHg 52%
12:00 +10°C° 0 mm 3 mps 759 mmHg 49%
13:00 +10°C° 0 mm 3 mps 759 mmHg 46%
14:00 +10°C° 0 mm 3 mps 758 mmHg 48%
15:00 +10°C° 0 mm 3 mps 758 mmHg 49%
16:00 +10°C° 0 mm 2 mps 758 mmHg 50%
17:00 +9°C° 0 mm 2 mps 758 mmHg 56%
18:00 +7°C° 0 mm 2 mps 758 mmHg 62%
19:00 +6°C° 0 mm 2 mps 758 mmHg 68%
20:00 +5°C° 0 mm 2 mps 758 mmHg 70%
21:00 +5°C° 0 mm 1 mps 758 mmHg 73%
22:00 +5°C° 0 mm 1 mps 758 mmHg 76%
23:00 +4°C° 0 mm 1 mps 758 mmHg 77%

Day after tomorrow, 17 April, Saturday

Time Temperature Precipitation Wind Pressure Humidity
00:00 +4°C° 0 mm 1 mps 758 mmHg 77%
01:00 +4°C° 0 mm 1 mps 757 mmHg 78%
02:00 +3°C° 0 mm 1 mps 757 mmHg 80%
03:00 +3°C° 0 mm 1 mps 757 mmHg 81%
04:00 +3°C° 0 mm 1 mps 757 mmHg 83%
05:00 +4°C° 0 mm 1 mps 757 mmHg 79%
06:00 +4°C° 0 mm 2 mps 757 mmHg 75%
07:00 +5°C° 0 mm 2 mps 757 mmHg 71%
08:00 +7°C° 0 mm 2 mps 757 mmHg 66%
09:00 +8°C° 0 mm 2 mps 757 mmHg 60%
10:00 +10°C° 0 mm 2 mps 756 mmHg 55%
11:00 +12°C° 0 mm 2 mps 756 mmHg 53%
12:00 +12°C° 0 mm 2 mps 755 mmHg 51%
13:00 +13°C° 0 mm 2 mps 755 mmHg 49%
14:00 +13°C° 0.1 mm 2 mps 755 mmHg 54%
15:00 +12°C° 0.1 mm 2 mps 755 mmHg 59%
16:00 +12°C° 0.1 mm 2 mps 754 mmHg 64%
17:00 +10°C° 0.2 mm 2 mps 754 mmHg 70%
18:00 +9°C° 0.2 mm 2 mps 754 mmHg 76%
19:00 +9°C° 0.2 mm 1 mps 754 mmHg 82%
20:00 +8°C° 0.1 mm 2 mps 754 mmHg 82%
21:00 +8°C° 0.1 mm 2 mps 754 mmHg 81%
22:00 +8°C° 0.1 mm 2 mps 754 mmHg 81%
23:00 +8°C° 0.2 mm 2 mps 754 mmHg 82%

18 April, Sunday

Time Temperature Precipitation Wind Pressure Humidity
00:00 +8°C° 0.2 mm 3 mps 754 mmHg 83%
01:00 +8°C° 0.2 mm 3 mps 753 mmHg 84%
02:00 +7°C° 0.4 mm 3 mps 753 mmHg 85%
03:00 +7°C° 0.4 mm 3 mps 753 mmHg 86%
04:00 +7°C° 0.4 mm 3 mps 753 mmHg 87%
05:00 +7°C° 0.7 mm 3 mps 753 mmHg 88%
06:00 +7°C° 0.7 mm 2 mps 753 mmHg 89%
07:00 +7°C° 0.7 mm 2 mps 753 mmHg 90%
08:00 +7°C° 0.9 mm 2 mps 753 mmHg 90%
09:00 +8°C° 0.9 mm 1 mps 754 mmHg 90%
10:00 +9°C° 0.9 mm 1 mps 754 mmHg 90%
11:00 +9°C° 0.4 mm 1 mps 754 mmHg 89%
12:00 +9°C° 0.4 mm 1 mps 754 mmHg 89%
13:00 +9°C° 0.4 mm 1 mps 754 mmHg 89%
14:00 +9°C° 0.4 mm 1 mps 754 mmHg 90%
15:00 +7°C° 0.4 mm 2 mps 754 mmHg 91%
16:00 +7°C° 0.4 mm 2 mps 754 mmHg 93%
17:00 +7°C° 0.3 mm 2 mps 754 mmHg 93%
18:00 +7°C° 0.3 mm 2 mps 754 mmHg 93%
19:00 +6°C° 0.3 mm 2 mps 754 mmHg 93%
20:00 +7°C° 0.2 mm 1 mps 754 mmHg 94%
21:00 +7°C° 0.2 mm 1 mps 754 mmHg 94%
22:00 +7°C° 0.2 mm 1 mps 754 mmHg 95%
23:00 +7°C° 0.2 mm 1 mps 754 mmHg 95%

19 April, Monday

Time Temperature Precipitation Wind Pressure Humidity
00:00 +7°C° 0.2 mm 1 mps 754 mmHg 95%
01:00 +7°C° 0.2 mm 1 mps 754 mmHg 96%
02:00 +7°C° 0.1 mm 1 mps 753 mmHg 95%
03:00 +7°C° 0.1 mm 1 mps 753 mmHg 95%
04:00 +7°C° 0.1 mm 1 mps 753 mmHg 95%
05:00 +7°C° 0.1 mm 1 mps 753 mmHg 95%
06:00 +7°C° 0.1 mm 1 mps 753 mmHg 95%
07:00 +8°C° 0.1 mm 1 mps 753 mmHg 94%
08:00 +8°C° 0 mm 1 mps 753 mmHg 93%
09:00 +8°C° 0 mm 1 mps 752 mmHg 92%
10:00 +7°C° 0 mm 2 mps 752 mmHg 91%
11:00 +8°C° 0 mm 2 mps 752 mmHg 90%
12:00 +8°C° 0 mm 2 mps 752 mmHg 89%
13:00 +8°C° 0 mm 3 mps 752 mmHg 87%
14:00 +8°C° 0 mm 3 mps 751 mmHg 86%
15:00 +9°C° 0 mm 3 mps 751 mmHg 85%
16:00 +8°C° 0 mm 4 mps 751 mmHg 84%
17:00 +8°C° 0 mm 4 mps 751 mmHg 86%
18:00 +7°C° 0 mm 4 mps 751 mmHg 89%
19:00 +7°C° 0 mm 4 mps 751 mmHg 91%
20:00 +7°C° 0 mm 4 mps 751 mmHg 92%
21:00 +7°C° 0 mm 4 mps 750 mmHg 92%
22:00 +7°C° 0 mm 4 mps 750 mmHg 93%
23:00 +7°C° 0.4 mm 4 mps 750 mmHg 94%

20 April, Tuesday

Time Temperature Precipitation Wind Pressure Humidity
00:00 +6°C° 0.4 mm 4 mps 750 mmHg 94%
01:00 +6°C° 0.4 mm 4 mps 750 mmHg 95%
02:00 +6°C° 0.3 mm 5 mps 750 mmHg 94%
03:00 +6°C° 0.3 mm 5 mps 750 mmHg 94%
04:00 +6°C° 0.3 mm 5 mps 750 mmHg 93%
05:00 +6°C° 0.1 mm 5 mps 750 mmHg 93%
06:00 +6°C° 0.1 mm 5 mps 750 mmHg 93%
07:00 +7°C° 0.1 mm 4 mps 750 mmHg 93%
08:00 +7°C° 0.2 mm 5 mps 750 mmHg 91%
09:00 +8°C° 0.2 mm 5 mps 750 mmHg 89%
10:00 +8°C° 0.2 mm 5 mps 750 mmHg 88%
11:00 +9°C° 0.2 mm 5 mps 750 mmHg 82%
12:00 +10°C° 0.2 mm 5 mps 750 mmHg 77%
13:00 +12°C° 0.2 mm 5 mps 750 mmHg 71%
14:00 +12°C° 0.1 mm 5 mps 751 mmHg 70%
15:00 +12°C° 0.1 mm 5 mps 751 mmHg 69%
16:00 +13°C° 0.1 mm 4 mps 751 mmHg 67%
17:00 +11°C° 0 mm 4 mps 751 mmHg 73%
18:00 +10°C° 0 mm 3 mps 752 mmHg 79%
19:00 +9°C° 0 mm 3 mps 752 mmHg 84%
20:00 +8°C° 0 mm 3 mps 752 mmHg 86%
21:00 +8°C° 0 mm 3 mps 753 mmHg 88%
22:00 +7°C° 0 mm 3 mps 753 mmHg 90%
23:00 +7°C° 0 mm 3 mps 753 mmHg 91%
Show more